Home > Weather > Oranjestad > Past weeks

Flag for Aruba Weather for the Past 2 Weeks in Oranjestad, Aruba

Now
81 °F

Scattered clouds.


Feels Like: 85 °F
Forecast: 79 / 86 °F
Wind: 17 mph from East

Location: Queen Beatrix Airport - Aruba

Current Time: Feb 13, 2016 at 9:05:00 AM

Latest Report: Feb 13, 2016 at 8:00 AM


Visibility: N/A

Pressure: 29.92 "Hg

Humidity: 74%

Dew point: 72 °F

Location of OranjestadLocation

Historic Weather in Oranjestad — Graph

°F

Oranjestad Temperature Yesterday

Maximum temperature yesterday: 88 °F (at 2:00 PM)
Minimum temperature yesterday: 79 °F (at 12:00 AM)
Average temperature yesterday: 82 °F

High & Low Weather Summary for the Past Weeks

 TemperatureHumidityPressure
High88 °F (Jan 30, 2:00 PM)84% (Feb 7, 1:00 AM)30.01 "Hg (Feb 7, 1:00 AM)
Low77 °F (Jan 29, 7:00 AM)55% (Jan 30, 2:00 PM)29.80 "Hg (Feb 7, 4:00 PM)
Average81 °F74%29.91 "Hg
* Reported Jan 29 7:00 AM — Feb 13 7:00 AM, Oranjestad, Weather by CustomWeather, © 2016

Note: Actual official high and low records may vary slightly from our data, if they occured in-between our weather recording intervals... More about our weather records

Advertising

Oranjestad Weather History for the Previous 24 Hours

 ConditionsComfort  
Time TempWeatherWind HumidityBarometerVisibility
7:00 AM
Sat, Feb 13
79 °FPassing clouds.20 mph79%29.89 "HgN/A
6:00 AM79 °FPassing clouds.21 mph79%29.89 "HgN/A
5:00 AM79 °FPassing clouds.21 mph79%29.86 "HgN/A
2:00 AM79 °FPassing clouds.20 mph79%29.89 "HgN/A
1:00 AM79 °FPassing clouds.23 mph79%29.92 "HgN/A
12:00 AM79 °FPassing clouds.24 mph79%29.92 "HgN/A
11:00 PM
Fri, Feb 12
81 °FPassing clouds.21 mph79%29.95 "HgN/A
10:00 PM81 °FPassing clouds.23 mph79%29.92 "HgN/A
9:00 PM81 °FPassing clouds.22 mph74%29.92 "HgN/A
8:00 PM81 °FPassing clouds.21 mph79%29.89 "HgN/A
7:00 PM81 °FPassing clouds.23 mph74%29.89 "HgN/A
6:00 PM82 °FPassing clouds.22 mph74%29.89 "HgN/A
5:00 PM84 °FScattered clouds.25 mph66%29.89 "HgN/A
4:00 PM86 °FPassing clouds.23 mph66%29.89 "HgN/A
3:00 PM88 °FPassing clouds.24 mph62%29.89 "HgN/A
2:00 PM88 °FPassing clouds.25 mph62%29.92 "HgN/A
1:00 PM86 °FPassing clouds.26 mph66%29.95 "HgN/A
12:00 PM86 °FScattered clouds.25 mph66%29.98 "HgN/A
11:00 AM86 °FPassing clouds.26 mph66%30.01 "HgN/A
10:00 AM84 °FScattered clouds.22 mph70%30.01 "HgN/A
9:00 AM81 °FScattered clouds.24 mph79%30.01 "HgN/A
Weather by CustomWeather, © 2016

See weather overviewHow to use our weather pages